• In Hungary
  • List of Countries
  • For 7 days
  • Water Temperature
  • Satellite Maps
  • Weather Map
  • News
  • Weather Widgets
  • user-avatar
    Login

    Hourly Weather Bulanovka

    Today, 25 September, Tuesday

    Time Temperature Precipitation Wind Pressure Humidity
    00:00 +12°C° 0 mm 3 mps 727 mmHg 60%
    01:00 +12°C° 0 mm 3 mps 727 mmHg 60%
    02:00 +12°C° 0 mm 3 mps 727 mmHg 60%
    03:00 +11°C° 0 mm 3 mps 727 mmHg 60%
    04:00 +10°C° 0 mm 2 mps 727 mmHg 64%
    05:00 +10°C° 0 mm 3 mps 727 mmHg 65%
    06:00 +10°C° 0 mm 3 mps 727 mmHg 66%
    07:00 +10°C° 0 mm 4 mps 727 mmHg 68%
    08:00 +12°C° 0 mm 5 mps 728 mmHg 68%
    09:00 +13°C° 0 mm 6 mps 728 mmHg 68%
    10:00 +15°C° 0 mm 7 mps 728 mmHg 66%
    11:00 +16°C° 0 mm 7 mps 728 mmHg 62%
    12:00 +17°C° 0 mm 8 mps 728 mmHg 59%
    13:00 +18°C° 0 mm 8 mps 728 mmHg 55%
    14:00 +18°C° 0 mm 8 mps 728 mmHg 54%
    15:00 +17°C° 0 mm 7 mps 728 mmHg 54%
    16:00 +17°C° 0 mm 7 mps 728 mmHg 53%
    17:00 +16°C° 0 mm 6 mps 728 mmHg 56%
    18:00 +15°C° 0 mm 5 mps 728 mmHg 59%
    19:00 +13°C° 0 mm 4 mps 728 mmHg 62%
    20:00 +13°C° 0 mm 4 mps 728 mmHg 61%
    21:00 +12°C° 0 mm 4 mps 727 mmHg 60%
    22:00 +12°C° 0 mm 4 mps 727 mmHg 59%
    23:00 +12°C° 0 mm 4 mps 727 mmHg 58%

    Tomorrow, 26 September, Wednesday

    Time Temperature Precipitation Wind Pressure Humidity
    00:00 +12°C° 0 mm 4 mps 728 mmHg 58%
    01:00 +12°C° 0 mm 4 mps 728 mmHg 57%
    02:00 +12°C° 0 mm 4 mps 728 mmHg 56%
    03:00 +12°C° 0 mm 5 mps 728 mmHg 55%
    04:00 +13°C° 0 mm 5 mps 728 mmHg 54%
    05:00 +13°C° 0 mm 5 mps 728 mmHg 53%
    06:00 +13°C° 0 mm 5 mps 728 mmHg 53%
    07:00 +13°C° 0 mm 5 mps 728 mmHg 52%
    08:00 +13°C° 0 mm 6 mps 728 mmHg 51%
    09:00 +14°C° 0 mm 6 mps 729 mmHg 50%
    10:00 +15°C° 0 mm 7 mps 729 mmHg 49%
    11:00 +15°C° 0.1 mm 6 mps 729 mmHg 51%
    12:00 +15°C° 0.1 mm 5 mps 729 mmHg 53%
    13:00 +15°C° 0.1 mm 5 mps 730 mmHg 55%
    14:00 +14°C° 0.5 mm 4 mps 730 mmHg 63%
    15:00 +12°C° 0.5 mm 3 mps 730 mmHg 72%
    16:00 +11°C° 0.5 mm 3 mps 729 mmHg 80%
    17:00 +11°C° 0.6 mm 3 mps 730 mmHg 83%
    18:00 +10°C° 0.6 mm 3 mps 730 mmHg 85%
    19:00 +8°C° 0.6 mm 4 mps 730 mmHg 88%
    20:00 +9°C° 0.4 mm 3 mps 730 mmHg 89%
    21:00 +8°C° 0.4 mm 3 mps 730 mmHg 89%
    22:00 +8°C° 0.4 mm 2 mps 730 mmHg 89%
    23:00 +8°C° 0.7 mm 2 mps 730 mmHg 90%

    Day after tomorrow, 27 September, Thursday

    Time Temperature Precipitation Wind Pressure Humidity
    00:00 +8°C° 0.7 mm 2 mps 730 mmHg 91%
    01:00 +7°C° 0.7 mm 3 mps 730 mmHg 92%
    02:00 +7°C° 0.4 mm 2 mps 730 mmHg 92%
    03:00 +7°C° 0.4 mm 2 mps 730 mmHg 92%
    04:00 +7°C° 0.4 mm 2 mps 730 mmHg 92%
    05:00 +7°C° 0 mm 3 mps 729 mmHg 92%
    06:00 +5°C° 0 mm 3 mps 729 mmHg 92%
    07:00 +5°C° 0 mm 3 mps 729 mmHg 92%
    08:00 +6°C° 0 mm 4 mps 729 mmHg 86%
    09:00 +7°C° 0 mm 4 mps 729 mmHg 80%
    10:00 +7°C° 0 mm 5 mps 729 mmHg 75%
    11:00 +8°C° 0 mm 5 mps 729 mmHg 70%
    12:00 +8°C° 0 mm 6 mps 728 mmHg 66%
    13:00 +9°C° 0 mm 6 mps 728 mmHg 62%
    14:00 +9°C° 0 mm 6 mps 727 mmHg 60%
    15:00 +9°C° 0 mm 6 mps 727 mmHg 57%
    16:00 +9°C° 0 mm 7 mps 726 mmHg 55%
    17:00 +8°C° 0 mm 6 mps 726 mmHg 57%
    18:00 +7°C° 0 mm 5 mps 726 mmHg 60%
    19:00 +6°C° 0 mm 5 mps 725 mmHg 62%
    20:00 +6°C° 0 mm 5 mps 725 mmHg 61%
    21:00 +5°C° 0 mm 6 mps 724 mmHg 60%
    22:00 +5°C° 0 mm 7 mps 724 mmHg 59%
    23:00 +5°C° 0.2 mm 7 mps 723 mmHg 64%

    28 September, Friday

    Time Temperature Precipitation Wind Pressure Humidity
    00:00 +4°C° 0.2 mm 8 mps 722 mmHg 69%
    01:00 +4°C° 0.2 mm 8 mps 721 mmHg 74%
    02:00 +4°C° 0.5 mm 8 mps 721 mmHg 77%
    03:00 +2°C° 0.5 mm 8 mps 720 mmHg 79%
    04:00 +2°C° 0.5 mm 8 mps 720 mmHg 82%
    05:00 +2°C° 0.6 mm 8 mps 720 mmHg 84%
    06:00 +3°C° 0.6 mm 7 mps 720 mmHg 85%
    07:00 +4°C° 0.6 mm 7 mps 720 mmHg 86%
    08:00 +4°C° 0 mm 7 mps 721 mmHg 83%
    09:00 +4°C° 0 mm 7 mps 722 mmHg 80%
    10:00 +5°C° 0 mm 7 mps 722 mmHg 76%
    11:00 +5°C° 0 mm 7 mps 723 mmHg 74%
    12:00 +5°C° 0 mm 7 mps 723 mmHg 72%
    13:00 +6°C° 0 mm 7 mps 724 mmHg 69%
    14:00 +6°C° 0 mm 7 mps 724 mmHg 67%
    15:00 +8°C° 0 mm 7 mps 725 mmHg 64%
    16:00 +8°C° 0 mm 7 mps 725 mmHg 61%
    17:00 +7°C° 0 mm 6 mps 725 mmHg 65%
    18:00 +6°C° 0 mm 5 mps 725 mmHg 69%
    19:00 +5°C° 0 mm 4 mps 725 mmHg 73%
    20:00 +5°C° 0 mm 4 mps 725 mmHg 73%
    21:00 +5°C° 0 mm 4 mps 725 mmHg 73%
    22:00 +5°C° 0 mm 5 mps 725 mmHg 74%
    23:00 +4°C° 0 mm 6 mps 725 mmHg 72%

    29 September, Saturday

    Time Temperature Precipitation Wind Pressure Humidity
    00:00 +5°C° 0 mm 6 mps 724 mmHg 70%
    01:00 +5°C° 0 mm 7 mps 723 mmHg 68%
    02:00 +5°C° 0 mm 8 mps 723 mmHg 67%
    03:00 +5°C° 0 mm 9 mps 723 mmHg 66%
    04:00 +6°C° 0 mm 9 mps 722 mmHg 65%
    05:00 +6°C° 0.1 mm 10 mps 722 mmHg 69%
    06:00 +6°C° 0.1 mm 10 mps 722 mmHg 73%
    07:00 +6°C° 0.1 mm 10 mps 722 mmHg 77%
    08:00 +7°C° 0.4 mm 10 mps 722 mmHg 80%
    09:00 +7°C° 0.4 mm 9 mps 723 mmHg 82%
    10:00 +7°C° 0.4 mm 9 mps 724 mmHg 85%
    11:00 +9°C° 0.1 mm 8 mps 725 mmHg 78%
    12:00 +9°C° 0.1 mm 7 mps 725 mmHg 71%
    13:00 +9°C° 0.1 mm 6 mps 726 mmHg 64%
    14:00 +9°C° 0 mm 6 mps 727 mmHg 61%
    15:00 +9°C° 0 mm 6 mps 727 mmHg 59%
    16:00 +9°C° 0 mm 6 mps 728 mmHg 56%
    17:00 +7°C° 0 mm 5 mps 728 mmHg 61%
    18:00 +6°C° 0 mm 4 mps 729 mmHg 66%
    19:00 +4°C° 0 mm 3 mps 729 mmHg 70%
    20:00 +5°C° 0 mm 2 mps 730 mmHg 71%
    21:00 +4°C° 0 mm 2 mps 730 mmHg 72%
    22:00 +4°C° 0 mm 2 mps 731 mmHg 72%
    23:00 +3°C° 0 mm 2 mps 731 mmHg 72%

    30 September, Sunday

    Time Temperature Precipitation Wind Pressure Humidity
    00:00 +3°C° 0 mm 2 mps 731 mmHg 73%
    01:00 +2°C° 0 mm 2 mps 731 mmHg 73%
    02:00 +4°C° 0 mm 1 mps 732 mmHg 71%
    03:00 +4°C° 0 mm 1 mps 732 mmHg 70%
    04:00 +4°C° 0 mm 1 mps 733 mmHg 68%
    05:00 +4°C° 0 mm 1 mps 733 mmHg 68%
    06:00 +4°C° 0 mm 1 mps 733 mmHg 68%
    07:00 +4°C° 0 mm 1 mps 733 mmHg 68%
    08:00 +4°C° 0.1 mm 1 mps 733 mmHg 65%
    09:00 +5°C° 0.1 mm 1 mps 734 mmHg 62%
    10:00 +5°C° 0.1 mm 1 mps 734 mmHg 59%
    11:00 +4°C° 0 mm 2 mps 734 mmHg 56%
    12:00 +5°C° 0 mm 2 mps 734 mmHg 53%
    13:00 +5°C° 0 mm 2 mps 734 mmHg 51%
    14:00 +6°C° 0 mm 2 mps 734 mmHg 50%
    15:00 +6°C° 0 mm 2 mps 734 mmHg 49%
    16:00 +6°C° 0 mm 2 mps 733 mmHg 47%
    17:00 +5°C° 0 mm 2 mps 733 mmHg 52%
    18:00 +4°C° 0 mm 2 mps 734 mmHg 57%
    19:00 +4°C° 0 mm 1 mps 734 mmHg 62%
    20:00 +3°C° 0 mm 1 mps 734 mmHg 64%
    21:00 +3°C° 0 mm 1 mps 734 mmHg 66%
    22:00 +2°C° 0 mm 1 mps 734 mmHg 68%
    23:00 +1°C° 0 mm 2 mps 734 mmHg 71%
    Show more